This is the latest recevied weather packets stored in our database for station/object VR2R-13. If no packets are shown the sender has not sent any weather packets the latest 1 day(s).
| Time | Temp. | Humidity | Pressure | Rain* | Wind** | Luminosity | Snow |
|---|---|---|---|---|---|---|---|
| 1778056371 | 17.78° C | 98% | 913 hPa | 0 mm | 3.13 m/s, 115° | - | - |
| 1778056193 | 18.33° C | 98% | 913 hPa | 0 mm | 2.24 m/s, 74° | - | - |
| 1778056071 | 18.33° C | 98% | 913 hPa | 0 mm | 2.68 m/s, 109° | - | - |
| 1778055833 | 17.78° C | 98% | 913 hPa | 0 mm | 2.24 m/s, 93° | - | - |
| 1778055771 | 17.78° C | 98% | 913.1 hPa | 0 mm | 0.45 m/s, 114° | - | - |
| 1778055473 | 18.33° C | 98% | 913.1 hPa | 0 mm | 3.13 m/s, 119° | - | - |
| 1778055471 | 18.33° C | 98% | 913.1 hPa | 0 mm | 3.13 m/s, 116° | - | - |
| 1778055171 | 18.33° C | 98% | 913.1 hPa | 0 mm | 3.13 m/s, 109° | - | - |
| 1778055113 | 18.33° C | 98% | 913.1 hPa | 0 mm | 2.68 m/s, 85° | - | - |
| 1778054871 | 18.33° C | 98% | 913.1 hPa | 0 mm | 2.68 m/s, 86° | - | - |
| 1778054753 | 17.78° C | 98% | 913.1 hPa | 0 mm | 0 m/s | - | - |
| 1778054571 | 17.78° C | 98% | 913.1 hPa | 0 mm | 2.24 m/s, 106° | - | - |
| 1778054393 | 17.78° C | 98% | 913.2 hPa | 0 mm | 2.68 m/s, 104° | - | - |
| 1778054271 | 17.78° C | 98% | 913.2 hPa | 0 mm | 0.89 m/s, 73° | - | - |
| 1778054032 | 17.78° C | 98% | 913.2 hPa | 0 mm | 1.79 m/s, 105° | - | - |
| 1778053971 | 17.78° C | 98% | 913.2 hPa | 0 mm | 1.79 m/s, 107° | - | - |
| 1778053673 | 17.78° C | 98% | 913.3 hPa | 0 mm | 0.89 m/s, 109° | - | - |
| 1778053671 | 17.78° C | 98% | 913.3 hPa | 0 mm | 0.89 m/s, 97° | - | - |
| 1778053371 | 17.78° C | 98% | 913.3 hPa | 0 mm | 2.24 m/s, 104° | - | - |
| 1778053312 | 17.78° C | 98% | 913.4 hPa | 0 mm | 2.24 m/s, 117° | - | - |
| 1778053071 | 17.78° C | 98% | 913.4 hPa | 0 mm | 2.24 m/s, 99° | - | - |
| 1778052952 | 17.78° C | 98% | 913.4 hPa | 0 mm | 0.45 m/s, 95° | - | - |
| 1778052771 | 17.78° C | 98% | 913.4 hPa | 0 mm | 0 m/s | - | - |
| 1778052471 | 17.78° C | 98% | 913.5 hPa | 0 mm | 1.79 m/s, 90° | - | - |
| 1778052232 | 17.78° C | 98% | 913.5 hPa | 0 mm | 2.24 m/s, 91° | - | - |
* Rain latest hour (hover to see other rain measurements)
** Current wind speed in m/s (hover to see current wind gust speed)